FW1747 Weather Reports


Display with metric or nautical units.
time (UTC)temp
F
wind
direction
speed
MPH
gust
MPH
rain 1hr
in
rain 24hr
in
rain mn
in
humidity
%
barometer
mb
20260906040024 59 281 0.0 1.0 0.00 0.01 0.01 77 1016.1
20260906034516 60 269 0.0 1.0 0.00 0.01 0.01 75 1016.0
20260906033033 60 290 0.0 1.0 0.00 0.01 0.01 75 1015.8
20260906031514 61 313 0.0 2.0 0.00 0.01 0.01 74 1015.7
20260906030015 61 271 0.0 3.0 0.00 0.01 0.01 73 1015.7
20260906024513 62 288 0.0 1.0 0.00 0.02 0.01 71 1015.8
20260906023012 63 296 0.0 0.0 0.00 0.02 0.01 69 1015.8
20260906021513 63 302 0.0 3.0 0.00 0.02 0.01 68 1015.8
20260906020011 64 285 0.0 5.0 0.00 0.03 0.01 67 1015.7
20260906014511 65 288 0.0 4.0 0.00 0.03 0.01 66 1015.6
20260906013013 66 355 0.0 3.0 0.00 0.03 0.01 65 1015.6
20260906011510 67 315 0.0 7.0 0.00 0.03 0.01 62 1015.7
20260906010010 67 314 0.0 1.0 0.00 0.03 0.01 60 1015.7
20260906004508 68 233 0.0 3.0 0.00 0.03 0.01 58 1015.7
20260906003008 69 209 0.0 0.0 0.00 0.03 0.01 56 1015.6
20260906001507 69 283 0.0 5.0 0.00 0.03 0.01 55 1015.6
20260906000008 70 1 0.0 4.0 0.00 0.03 0.01 53 1015.5
20260905234507 70 289 1.0 5.0 0.00 0.03 0.01 54 1015.4
20260905233005 69 239 0.0 2.0 0.00 0.03 0.01 58 1015.5
20260905231504 69 191 0.0 4.0 0.00 0.03 0.01 56 1015.7
20260905230001 70 255 0.0 4.0 0.00 0.03 0.01 58 1015.8
20260905224606 68 274 0.0 6.0 0.00 0.03 0.01 62 1016.0
20260905223055 68 1 2.0 6.0 0.00 0.03 0.01 62 1016.1
20260905221558 67 283 0.0 6.0 0.00 0.03 0.01 64 1016.2
20260905220103 66 296 0.0 6.0 0.00 0.03 0.01 66 1016.3
20260905214547 66 359 0.0 4.0 0.00 0.06 0.01 66 1016.4
20260905213051 66 285 0.0 1.0 0.00 0.06 0.01 62 1016.5
20260905211602 66 355 0.0 3.0 0.00 0.06 0.01 62 1016.6
20260905210052 66 100 0.0 1.0 0.00 0.06 0.01 63 1016.6
20260905204552 67 89 0.0 0.0 0.00 0.08 0.01 63 1016.9
20260905203110 66 259 0.0 3.0 0.00 0.08 0.01 66 1016.9
20260905201545 67 85 0.0 3.0 0.00 0.08 0.01 66 1016.9
20260905200052 67 259 0.0 3.0 0.00 0.08 0.01 65 1017.0
20260905194537 66 222 1.0 6.0 0.00 0.08 0.01 71 1017.1
20260905193032 65 71 0.0 2.0 0.00 0.08 0.01 72 1017.3
20260905191529 63 247 0.0 1.0 0.00 0.08 0.01 75 1017.5
20260905190026 62 334 0.0 1.0 0.00 0.08 0.01 77 1017.5
20260905184531 63 81 0.0 1.0 0.00 0.09 0.01 79 1017.6
20260905183020 61 252 0.0 1.0 0.00 0.09 0.01 81 1017.6
20260905181518 60 221 0.0 3.0 0.00 0.09 0.01 82 1017.7
20260905180015 60 255 0.0 0.0 0.00 0.09 0.01 84 1017.6
20260905174511 59 229 0.0 0.0 0.00 0.09 0.01 88 1017.7
20260905173007 58 223 0.0 2.0 0.00 0.09 0.01 90 1017.8
20260905171504 57 226 0.0 1.0 0.00 0.09 0.01 91 1017.8
20260905170004 57 162 0.0 2.0 0.00 0.09 0.01 91 1017.7
20260905164501 57 80 0.0 6.0 0.00 0.09 0.01 91 1017.7
20260905163102 56 97 2.0 5.0 0.00 0.09 0.01 94 1017.7
20260905161558 56 75 0.0 3.0 0.00 0.09 0.01 95 1017.6
20260905160132 55 80 0.0 2.0 0.00 0.09 0.01 95 1017.7
20260905154559 55 117 0.0 3.0 0.00 0.09 0.01 96 1017.7
20260905153054 54 177 0.0 6.0 0.01 0.09 0.01 96 1017.7
20260905151602 54 124 0.0 0.0 0.01 0.09 0.01 96 1017.7
20260905150053 54 124 0.0 0.0 0.01 0.09 0.01 95 1017.7
20260905144552 54 124 0.0 0.0 0.01 0.11 0.01 95 1017.8
20260905143052 54 124 0.0 0.0 0.00 0.10 0.00 96 1017.7
20260905141551 53 124 0.0 0.0 0.00 0.10 0.00 95 1017.6
20260905140051 53 124 0.0 0.0 0.00 0.10 0.00 95 1017.7
20260905134550 53 124 0.0 0.0 0.00 0.11 0.00 95 1017.6
20260905133048 53 124 0.0 0.0 0.00 0.11 0.00 95 1017.6
20260905131547 53 124 0.0 0.0 0.00 0.11 0.00 94 1017.4
20260905130045 53 124 0.0 0.0 0.00 0.11 0.00 94 1017.4
20260905124544 53 124 0.0 0.0 0.00 0.11 0.00 95 1017.3
20260905123043 53 124 0.0 0.0 0.00 0.11 0.00 95 1017.2
20260905121541 54 124 0.0 0.0 0.00 0.11 0.00 94 1017.0
20260905120041 54 124 0.0 0.0 0.00 0.11 0.00 94 1017.1
20260905114539 54 124 0.0 0.0 0.00 0.11 0.00 94 1017.1
20260905113039 54 124 0.0 0.0 0.00 0.11 0.00 94 1017.1
20260905111539 54 124 0.0 0.0 0.00 0.11 0.00 94 1017.0
20260905110040 54 124 0.0 0.0 0.00 0.11 0.00 94 1017.0
20260905104540 54 125 0.0 0.0 0.00 0.13 0.00 94 1017.0
20260905103045 54 125 0.0 0.0 0.00 0.13 0.00 94 1017.0
20260905101536 54 125 0.0 0.0 0.00 0.13 0.00 94 1017.0
20260905100036 54 125 0.0 0.0 0.00 0.13 0.00 94 1017.0
20260905094538 54 125 0.0 0.0 0.00 0.16 0.00 94 1016.9
20260905093034 54 125 0.0 0.0 0.00 0.16 0.00 93 1016.9
20260905091608 53 125 0.0 0.0 0.00 0.16 0.00 93 1016.9
20260905090032 53 125 0.0 0.0 0.00 0.16 0.00 92 1016.8
20260905084530 53 125 0.0 0.0 0.00 0.24 0.00 92 1016.9
20260905083029 54 125 0.0 0.0 0.00 0.24 0.00 92 1016.8
20260905081528 54 123 0.0 1.0 0.00 0.24 0.00 92 1016.7
20260905080031 54 127 0.0 0.0 0.00 0.24 0.00 92 1016.5
20260905074524 54 122 0.0 1.0 0.00 0.26 0.00 92 1016.5
20260905073023 54 100 0.0 0.0 0.00 0.26 0.00 92 1016.5
20260905071523 54 100 0.0 0.0 0.00 0.26 0.00 92 1016.4
20260905070024 54 100 0.0 0.0 0.00 0.26 0.00 92 1016.4
20260905064519 54 100 0.0 0.0 0.00 0.27 0.26 92 1016.4
20260905063018 54 100 0.0 0.0 0.00 0.27 0.26 92 1016.3
20260905061518 55 100 0.0 0.0 0.00 0.27 0.26 92 1016.2
20260905060017 54 100 0.0 3.0 0.00 0.27 0.26 92 1016.3
20260905054518 54 101 0.0 2.0 0.00 0.27 0.26 92 1016.1
20260905053015 55 137 0.0 0.0 0.00 0.27 0.26 92 1016.0
20260905051515 55 115 0.0 0.0 0.00 0.27 0.26 92 1016.0
20260905050014 55 115 0.0 0.0 0.00 0.27 0.26 92 1016.0
20260905044512 55 115 0.0 1.0 0.00 0.27 0.26 92 1015.9
20260905043021 55 116 0.0 0.0 0.00 0.27 0.26 91 1015.8
20260905041510 55 116 0.0 0.0 0.00 0.27 0.26 91 1015.7